| time (UTC) | temp F | wind direction | speed knots | gust knots | rain 1hr in | rain 24hr in | rain mn in | humidity % | barometer mb |
| 20260504192104 | 83 | 166 | 7.0 | 8.7 | 0.00 | 0.00 | 0.00 | 49 | 1012.3 |
| 20260504191602 | 84 | 220 | 2.6 | 6.1 | 0.00 | 0.00 | 0.00 | 49 | 1012.6 |
| 20260504191057 | 83 | 165 | 4.3 | 5.2 | 0.00 | 0.00 | 0.00 | 48 | 1012.4 |
| 20260504190554 | 82 | 209 | 5.2 | 8.7 | 0.00 | 0.00 | 0.00 | 50 | 1012.5 |
| 20260504190050 | 83 | 212 | 7.8 | 8.7 | 0.00 | 0.00 | 0.00 | 49 | 1012.5 |
| 20260504185547 | 83 | 213 | 5.2 | 8.7 | 0.00 | 0.00 | 0.00 | 48 | 1012.5 |
| 20260504185044 | 82 | 164 | 5.2 | 7.0 | 0.00 | 0.00 | 0.00 | 49 | 1012.7 |
| 20260504184539 | 82 | 184 | 3.5 | 9.6 | 0.00 | 0.00 | 0.00 | 50 | 1012.7 |
| 20260504184035 | 83 | 183 | 6.1 | 7.8 | 0.00 | 0.00 | 0.00 | 48 | 1012.8 |
| 20260504183532 | 82 | 225 | 6.1 | 9.6 | 0.00 | 0.00 | 0.00 | 49 | 1012.7 |
| 20260504183030 | 82 | 140 | 9.6 | 11.3 | 0.00 | 0.00 | 0.00 | 49 | 1012.6 |
| 20260504182527 | 82 | 144 | 5.2 | 13.0 | 0.00 | 0.00 | 0.00 | 50 | 1012.9 |
| 20260504182024 | 82 | 243 | 3.5 | 9.6 | 0.00 | 0.00 | 0.00 | 49 | 1012.8 |
| 20260504181521 | 82 | 159 | 3.5 | 9.6 | 0.00 | 0.00 | 0.00 | 49 | 1012.8 |
| 20260504181020 | 82 | 193 | 3.5 | 7.0 | 0.00 | 0.00 | 0.00 | 49 | 1013.1 |
| 20260504180518 | 83 | 202 | 6.1 | 7.8 | 0.00 | 0.00 | 0.00 | 47 | 1013.1 |
| 20260504180017 | 83 | 193 | 1.7 | 6.1 | 0.00 | 0.00 | 0.00 | 48 | 1013.3 |
| 20260504175513 | 82 | 223 | 7.0 | 9.6 | 0.00 | 0.00 | 0.00 | 49 | 1013.4 |
| 20260504175010 | 82 | 207 | 5.2 | 12.2 | 0.00 | 0.00 | 0.00 | 49 | 1013.3 |
| 20260504174508 | 82 | 156 | 7.0 | 11.3 | 0.00 | 0.00 | 0.00 | 49 | 1013.2 |
| 20260504174005 | 82 | 168 | 3.5 | 7.0 | 0.00 | 0.00 | 0.00 | 49 | 1013.6 |
| 20260504173501 | 82 | 218 | 4.3 | 7.0 | 0.00 | 0.00 | 0.00 | 49 | 1013.4 |
| 20260504172959 | 80 | 192 | 3.5 | 6.1 | 0.00 | 0.00 | 0.00 | 52 | 1013.5 |
| 20260504172454 | 80 | 191 | 3.5 | 9.6 | 0.00 | 0.00 | 0.00 | 51 | 1013.6 |
| 20260504171951 | 80 | 199 | 5.2 | 12.2 | 0.00 | 0.00 | 0.00 | 52 | 1013.7 |
| 20260504171449 | 79 | 229 | 3.5 | 7.8 | 0.00 | 0.00 | 0.00 | 53 | 1013.7 |
| 20260504170945 | 80 | 168 | 3.5 | 8.7 | 0.00 | 0.00 | 0.00 | 51 | 1013.8 |
| 20260504170441 | 80 | 122 | 7.0 | 11.3 | 0.00 | 0.00 | 0.00 | 50 | 1014.1 |
| 20260504160401 | 78 | 191 | 8.7 | 11.3 | 0.00 | 0.00 | 0.00 | 56 | 1015.0 |
| 20260504150825 | 75 | 148 | 5.2 | 7.0 | 0.00 | 0.00 | 0.00 | 60 | 1014.9 |
| 20260504150322 | 75 | 122 | 7.8 | 12.2 | 0.00 | 0.00 | 0.00 | 60 | 1014.8 |
| 20260504141252 | 73 | 164 | 3.5 | 6.1 | 0.00 | 0.00 | 0.00 | 60 | 1015.0 |
| 20260504140749 | 72 | 127 | 4.3 | 7.8 | 0.00 | 0.00 | 0.00 | 60 | 1015.0 |
| 20260504140244 | 72 | 144 | 4.3 | 7.8 | 0.00 | 0.00 | 0.00 | 60 | 1014.8 |
| 20260504130713 | 68 | 110 | 1.7 | 3.5 | 0.00 | 0.00 | 0.00 | 66 | 1014.7 |
| 20260504130209 | 67 | 152 | 3.5 | 5.2 | 0.00 | 0.00 | 0.00 | 66 | 1014.8 |
| 20260504120133 | 64 | 156 | 2.6 | 2.6 | 0.00 | 0.00 | 0.00 | 71 | 1014.4 |
| 20260504110600 | 63 | 146 | 1.7 | 3.5 | 0.00 | 0.00 | 0.00 | 72 | 1014.3 |
| 20260504100522 | 63 | 150 | 0.9 | 1.7 | 0.00 | 0.00 | 0.00 | 72 | 1014.6 |
| 20260504081915 | 65 | 142 | 1.7 | 1.7 | 0.00 | 0.00 | 0.00 | 64 | 1015.2 |
| 20260504081412 | 65 | 179 | 0.9 | 2.6 | 0.00 | 0.00 | 0.00 | 64 | 1015.2 |
| 20260504080908 | 65 | 165 | 0.9 | 1.7 | 0.00 | 0.00 | 0.00 | 64 | 1015.6 |
| 20260504080405 | 65 | 152 | 1.7 | 2.6 | 0.00 | 0.00 | 0.00 | 64 | 1015.6 |
| 20260504070333 | 65 | 176 | 0.9 | 3.5 | 0.00 | 0.00 | 0.00 | 63 | 1016.4 |
| 20260504050721 | 66 | 164 | 2.6 | 3.5 | 0.00 | 0.00 | 0.00 | 63 | 1017.3 |
| 20260504050218 | 66 | 168 | 1.7 | 3.5 | 0.00 | 0.00 | 0.00 | 62 | 1017.1 |
| 20260504045715 | 66 | 157 | 3.5 | 6.1 | 0.00 | 0.00 | 0.00 | 62 | 1017.3 |
| 20260504045215 | 66 | 138 | 2.6 | 6.1 | 0.00 | 0.00 | 0.00 | 61 | 1017.4 |
| 20260504044713 | 66 | 166 | 1.7 | 3.5 | 0.00 | 0.00 | 0.00 | 61 | 1017.4 |
| 20260504044210 | 66 | 189 | 3.5 | 3.5 | 0.00 | 0.00 | 0.00 | 60 | 1017.5 |
| 20260504043707 | 67 | 200 | 1.7 | 2.6 | 0.00 | 0.00 | 0.00 | 60 | 1017.6 |
| 20260504043204 | 67 | 180 | 1.7 | 2.6 | 0.00 | 0.00 | 0.00 | 59 | 1017.3 |
| 20260504042702 | 67 | 165 | 2.6 | 3.5 | 0.00 | 0.00 | 0.00 | 59 | 1017.6 |
| 20260504042158 | 67 | 188 | 3.5 | 3.5 | 0.00 | 0.00 | 0.00 | 59 | 1017.4 |
| 20260504041654 | 67 | 195 | 4.3 | 5.2 | 0.00 | 0.00 | 0.00 | 58 | 1017.6 |
| 20260504041150 | 67 | 166 | 2.6 | 5.2 | 0.00 | 0.00 | 0.00 | 58 | 1017.5 |
| 20260504040647 | 67 | 147 | 3.5 | 3.5 | 0.00 | 0.00 | 0.00 | 58 | 1017.3 |
| 20260504040144 | 68 | 186 | 1.7 | 2.6 | 0.00 | 0.00 | 0.00 | 58 | 1017.4 |
| 20260504035641 | 68 | 194 | 2.6 | 5.2 | 0.00 | 0.00 | 0.00 | 57 | 1017.4 |
| 20260504035137 | 68 | 177 | 1.7 | 2.6 | 0.00 | 0.00 | 0.00 | 58 | 1017.3 |
| 20260504034635 | 68 | 164 | 2.6 | 5.2 | 0.00 | 0.00 | 0.00 | 57 | 1017.4 |
| 20260504034132 | 68 | 164 | 3.5 | 5.2 | 0.00 | 0.00 | 0.00 | 57 | 1017.8 |
| 20260504033629 | 68 | 169 | 0.9 | 3.5 | 0.00 | 0.00 | 0.00 | 57 | 1017.5 |
| 20260504033127 | 68 | 150 | 1.7 | 5.2 | 0.00 | 0.00 | 0.00 | 56 | 1017.5 |
| 20260504032624 | 69 | 189 | 4.3 | 6.1 | 0.00 | 0.00 | 0.00 | 56 | 1017.4 |
| 20260504032121 | 69 | 157 | 3.5 | 6.1 | 0.00 | 0.00 | 0.00 | 56 | 1017.4 |
| 20260504031618 | 69 | 214 | 2.6 | 5.2 | 0.00 | 0.00 | 0.00 | 55 | 1017.4 |
| 20260504031114 | 69 | 195 | 4.3 | 7.0 | 0.00 | 0.00 | 0.00 | 55 | 1017.6 |
| 20260504030611 | 70 | 179 | 2.6 | 5.2 | 0.00 | 0.00 | 0.00 | 53 | 1017.3 |
| 20260504030108 | 70 | 165 | 4.3 | 7.8 | 0.00 | 0.00 | 0.00 | 52 | 1017.2 |
| 20260504025604 | 70 | 155 | 1.7 | 6.1 | 0.00 | 0.00 | 0.00 | 52 | 1017.2 |
| 20260504025101 | 70 | 143 | 3.5 | 7.0 | 0.00 | 0.00 | 0.00 | 52 | 1017.1 |
| 20260504024558 | 70 | 150 | 2.6 | 7.0 | 0.00 | 0.00 | 0.00 | 52 | 1017.2 |
| 20260504024055 | 71 | 163 | 4.3 | 5.2 | 0.00 | 0.00 | 0.00 | 52 | 1017.2 |
| 20260504023552 | 71 | 123 | 3.5 | 6.1 | 0.00 | 0.00 | 0.00 | 51 | 1017.1 |
| 20260504023048 | 71 | 153 | 2.6 | 5.2 | 0.00 | 0.00 | 0.00 | 51 | 1017.2 |
| 20260504022543 | 71 | 143 | 2.6 | 3.5 | 0.00 | 0.00 | 0.00 | 51 | 1017.2 |
| 20260504022040 | 71 | 150 | 7.0 | 7.8 | 0.00 | 0.00 | 0.00 | 50 | 1017.0 |
| 20260504021538 | 71 | 135 | 3.5 | 8.7 | 0.00 | 0.00 | 0.00 | 50 | 1016.9 |
| 20260504021034 | 71 | 130 | 2.6 | 7.0 | 0.00 | 0.00 | 0.00 | 50 | 1016.8 |
| 20260504020531 | 71 | 157 | 5.2 | 7.0 | 0.00 | 0.00 | 0.00 | 50 | 1017.1 |
| 20260504020028 | 71 | 156 | 7.8 | 12.2 | 0.00 | 0.00 | 0.00 | 49 | 1016.9 |
| 20260504015524 | 72 | 155 | 5.2 | 7.0 | 0.00 | 0.00 | 0.00 | 49 | 1017.1 |
| 20260504015020 | 72 | 179 | 5.2 | 8.7 | 0.00 | 0.00 | 0.00 | 48 | 1017.1 |
| 20260504014516 | 72 | 165 | 5.2 | 7.0 | 0.00 | 0.00 | 0.00 | 48 | 1016.9 |
| 20260504014014 | 72 | 153 | 6.1 | 8.7 | 0.00 | 0.00 | 0.00 | 47 | 1017.0 |
| 20260504013512 | 73 | 196 | 4.3 | 12.2 | 0.00 | 0.00 | 0.00 | 47 | 1016.9 |
| 20260504013009 | 73 | 146 | 1.7 | 7.0 | 0.00 | 0.00 | 0.00 | 46 | 1016.9 |
| 20260504012506 | 73 | 178 | 5.2 | 9.6 | 0.00 | 0.00 | 0.00 | 46 | 1016.9 |
| 20260504012004 | 73 | 127 | 4.3 | 6.1 | 0.00 | 0.00 | 0.00 | 45 | 1016.7 |
| 20260504011500 | 73 | 164 | 3.5 | 7.8 | 0.00 | 0.00 | 0.00 | 45 | 1016.7 |
| 20260504010955 | 73 | 127 | 7.0 | 11.3 | 0.00 | 0.00 | 0.00 | 44 | 1016.8 |
| 20260504010452 | 73 | 182 | 4.3 | 11.3 | 0.00 | 0.00 | 0.00 | 44 | 1016.9 |
| 20260504005948 | 74 | 150 | 6.1 | 8.7 | 0.00 | 0.00 | 0.00 | 44 | 1016.8 |
| 20260504005445 | 74 | 212 | 5.2 | 7.0 | 0.00 | 0.00 | 0.00 | 44 | 1016.7 |
| 20260504004943 | 74 | 179 | 8.7 | 11.3 | 0.00 | 0.00 | 0.00 | 43 | 1016.8 |
| 20260504004440 | 74 | 194 | 6.1 | 8.7 | 0.00 | 0.00 | 0.00 | 43 | 1016.7 |
| 20260504003937 | 75 | 133 | 7.8 | 9.6 | 0.00 | 0.00 | 0.00 | 42 | 1016.8 |
| 20260504003433 | 75 | 170 | 5.2 | 11.3 | 0.00 | 0.00 | 0.00 | 42 | 1016.7 |
| 20260504002930 | 75 | 182 | 5.2 | 8.7 | 0.00 | 0.00 | 0.00 | 41 | 1016.6 |
| 20260504002427 | 75 | 112 | 2.6 | 6.1 | 0.00 | 0.00 | 0.00 | 41 | 1016.6 |
| 20260504001924 | 76 | 143 | 4.3 | 7.8 | 0.00 | 0.00 | 0.00 | 40 | 1016.7 |
| 20260504001422 | 76 | 144 | 5.2 | 8.7 | 0.00 | 0.00 | 0.00 | 40 | 1016.6 |
| 20260504000918 | 77 | 152 | 2.6 | 7.8 | 0.00 | 0.00 | 0.00 | 40 | 1016.7 |
| 20260504000416 | 77 | 157 | 3.5 | 7.0 | 0.00 | 0.00 | 0.00 | 39 | 1016.6 |
| 20260503235913 | 77 | 148 | 8.7 | 9.6 | 0.00 | 0.00 | 0.00 | 39 | 1016.6 |
| 20260503235410 | 77 | 160 | 4.3 | 7.0 | 0.00 | 0.00 | 0.00 | 39 | 1016.8 |
| 20260503234908 | 77 | 173 | 4.3 | 7.8 | 0.00 | 0.00 | 0.00 | 38 | 1016.7 |
| 20260503234405 | 77 | 159 | 6.1 | 8.7 | 0.00 | 0.00 | 0.00 | 39 | 1016.6 |
| 20260503233903 | 77 | 158 | 7.0 | 13.0 | 0.00 | 0.00 | 0.00 | 38 | 1016.8 |
| 20260503233359 | 78 | 178 | 7.0 | 9.6 | 0.00 | 0.00 | 0.00 | 38 | 1017.0 |
| 20260503232855 | 78 | 228 | 5.2 | 9.6 | 0.00 | 0.00 | 0.00 | 39 | 1016.9 |
| 20260503232353 | 78 | 217 | 5.2 | 11.3 | 0.00 | 0.00 | 0.00 | 38 | 1016.9 |
| 20260503231850 | 78 | 185 | 10.4 | 12.2 | 0.00 | 0.00 | 0.00 | 37 | 1016.9 |
| 20260503231347 | 78 | 160 | 8.7 | 11.3 | 0.00 | 0.00 | 0.00 | 36 | 1017.0 |
| 20260503230843 | 78 | 151 | 6.1 | 7.8 | 0.00 | 0.00 | 0.00 | 37 | 1017.0 |
| 20260503230340 | 78 | 209 | 7.0 | 11.3 | 0.00 | 0.00 | 0.00 | 37 | 1016.8 |
| 20260503225838 | 78 | 191 | 4.3 | 9.6 | 0.00 | 0.00 | 0.00 | 37 | 1017.0 |
| 20260503225334 | 79 | 187 | 5.2 | 7.8 | 0.00 | 0.00 | 0.00 | 36 | 1017.2 |
| 20260503224830 | 79 | 178 | 3.5 | 6.1 | 0.00 | 0.00 | 0.00 | 36 | 1017.1 |
| 20260503224328 | 80 | 130 | 7.8 | 8.7 | 0.00 | 0.00 | 0.00 | 35 | 1017.0 |
| 20260503223825 | 81 | 165 | 7.8 | 13.0 | 0.00 | 0.00 | 0.00 | 34 | 1017.0 |
| 20260503223323 | 81 | 138 | 3.5 | 7.0 | 0.00 | 0.00 | 0.00 | 33 | 1017.1 |
| 20260503222818 | 80 | 210 | 3.5 | 5.2 | 0.00 | 0.00 | 0.00 | 31 | 1017.3 |
| 20260503222317 | 81 | 150 | 4.3 | 7.0 | 0.00 | 0.00 | 0.00 | 30 | 1017.3 |
| 20260503221815 | 80 | 128 | 1.7 | 6.1 | 0.00 | 0.00 | 0.00 | 30 | 1017.4 |
| 20260503221313 | 82 | 124 | 1.7 | 8.7 | 0.00 | 0.00 | 0.00 | 29 | 1017.5 |
| 20260503220809 | 81 | 136 | 0.9 | 3.5 | 0.00 | 0.00 | 0.00 | 30 | 1017.5 |
| 20260503220306 | 80 | 204 | 4.3 | 7.0 | 0.00 | 0.00 | 0.00 | 29 | 1017.5 |
| 20260503215802 | 81 | 173 | 9.6 | 11.3 | 0.00 | 0.00 | 0.00 | 29 | 1017.7 |
| 20260503215259 | 81 | 126 | 7.8 | 9.6 | 0.00 | 0.00 | 0.00 | 29 | 1017.4 |
| 20260503214757 | 82 | 151 | 2.6 | 3.5 | 0.00 | 0.00 | 0.00 | 28 | 1017.5 |
| 20260503214254 | 81 | 195 | 1.7 | 2.6 | 0.00 | 0.00 | 0.00 | 30 | 1017.6 |
| 20260503213752 | 84 | 137 | 3.5 | 3.5 | 0.00 | 0.00 | 0.00 | 28 | 1017.8 |
| 20260503213249 | 82 | 203 | 0.0 | 1.7 | 0.00 | 0.00 | 0.00 | 29 | 1017.8 |
| 20260503212746 | 80 | 153 | 3.5 | 7.0 | 0.00 | 0.00 | 0.00 | 29 | 1018.0 |
| 20260503212244 | 82 | 178 | 1.7 | 6.1 | 0.00 | 0.00 | 0.00 | 29 | 1017.8 |
| 20260503211741 | 81 | 208 | 3.5 | 7.8 | 0.00 | 0.00 | 0.00 | 29 | 1018.2 |
| 20260503211237 | 82 | 199 | 3.5 | 7.8 | 0.00 | 0.00 | 0.00 | 29 | 1018.3 |
| 20260503210732 | 82 | 136 | 2.6 | 6.1 | 0.00 | 0.00 | 0.00 | 30 | 1018.4 |
| 20260503210230 | 82 | 186 | 3.5 | 5.2 | 0.00 | 0.00 | 0.00 | 30 | 1018.2 |
| 20260503205725 | 82 | 197 | 2.6 | 7.0 | 0.00 | 0.00 | 0.00 | 30 | 1018.3 |
| 20260503205222 | 83 | 171 | 3.5 | 5.2 | 0.00 | 0.00 | 0.00 | 29 | 1018.1 |
| 20260503204718 | 82 | 143 | 1.7 | 3.5 | 0.00 | 0.00 | 0.00 | 29 | 1018.3 |
| 20260503204216 | 82 | 120 | 4.3 | 7.0 | 0.00 | 0.00 | 0.00 | 30 | 1018.4 |
| 20260503203713 | 83 | 231 | 1.7 | 6.1 | 0.00 | 0.00 | 0.00 | 29 | 1018.4 |
| 20260503203211 | 83 | 97 | 1.7 | 2.6 | 0.00 | 0.00 | 0.00 | 29 | 1018.6 |
| 20260503202708 | 82 | 179 | 2.6 | 2.6 | 0.00 | 0.00 | 0.00 | 30 | 1018.6 |
| 20260503202206 | 82 | 167 | 2.6 | 7.0 | 0.00 | 0.00 | 0.00 | 30 | 1018.9 |
| 20260503201703 | 84 | 156 | 4.3 | 7.0 | 0.00 | 0.00 | 0.00 | 30 | 1018.8 |
| 20260503201200 | 83 | 161 | 2.6 | 5.2 | 0.00 | 0.00 | 0.00 | 30 | 1018.9 |
| 20260503200656 | 82 | 144 | 2.6 | 2.6 | 0.00 | 0.00 | 0.00 | 30 | 1019.1 |
| 20260503200153 | 82 | 146 | 3.5 | 11.3 | 0.00 | 0.00 | 0.00 | 30 | 1019.2 |
| 20260503195650 | 83 | 192 | 2.6 | 6.1 | 0.00 | 0.00 | 0.00 | 29 | 1019.0 |
| 20260503195147 | 82 | 236 | 1.7 | 3.5 | 0.00 | 0.00 | 0.00 | 31 | 1019.4 |
| 20260503194644 | 81 | 183 | 3.5 | 7.8 | 0.00 | 0.00 | 0.00 | 29 | 1019.3 |
| 20260503194139 | 81 | 113 | 3.5 | 7.0 | 0.00 | 0.00 | 0.00 | 30 | 1019.4 |
| 20260503193637 | 82 | 185 | 6.1 | 8.7 | 0.00 | 0.00 | 0.00 | 29 | 1019.3 |
| 20260503193132 | 82 | 164 | 4.3 | 7.0 | 0.00 | 0.00 | 0.00 | 29 | 1019.3 |
| 20260503192628 | 82 | 219 | 1.7 | 9.6 | 0.00 | 0.00 | 0.00 | 29 | 1019.5 |